loading
DOY 173 | 2024-06-21T03:41:58Z

THOR AGENA D R/B, 815

Orbit data source: Space-Track

THOR AGENA D R/B, 815 is space debris in LEO originally from a launch on Thu, 18 Jun 1964 UTC launched from the Air Force Western Test Range (AFWTR). Debris objects in space refer to the collection of defunct objects orbiting the Earth. Examples of debris include non-operational satellites, rocket bodies, and fragments generated from explosions, collisions, or faulty payload assembly.

Loading next visibility...
Loading greatness...
THOR AGENA D R/B details
NORAD ID815
COSPAR ID
1964-031C
Orbit
LEO
Last TLE update23 hours ago
Origin
Flag of USUSAF SSD (US)
ManufacturerLMSC
BusAgena D
MotorUnknown
Mass600 kg wet, 600 kg dry
Launch date (UTC)
1964-06-18 (60 years ago)
Launch vehicleUnknown
Launch site
Air Force Western Test Range (AFWTR)
Object type
Payload
Rocket body
Debris
Radar Cross Section5.4 m², Large (>1 m²)
Predictive object data (real-time)
Latitude-29.10152°
Longitude54.80171°
Altitude816.596 km
Speed7.44 km/s
Apparent Right ascension02h 13m 34s
Apparent Declination-34° 09' 43"
Sunlit
Object is in daylight
Predictive observer data (real-time)
Local Sidereal Time14:40:50
Azimuth45.508° ENE
Elevation-82.085°
Doppler factor1
Orbital elements
Apogee804.112 km
Perigee787.522 km
Semi-major axis7,173.954 km
Eccentricity0.0011563
Inclination99.856°
RAAN21.4687°
Arg. of periapsis183.6752°
True anomaly176.44243°
Mean anomaly176.4342°
Mean motion3.57195 °/min
BSTAR0.000099643
Period100.79 mins
Definitive object data (Epoch: 2024-06-20T04:17:38.734Z)
Latitude-0.00002°
Longitude48.18263°
Altitude809.781 km
Speed7.444 km/s
True Right ascension01h 25m 52s
True Declination0° 00' 00"
Sunlit
Object was in daylight at TLE epoch
TLE from 23 hours ago
0 THOR AGENA D R/B
1   815U 64031C   24172.17892054  .00000192  00000-0  99643-4 0  9997
2   815  99.8560  21.4687 0011563 183.6752 176.4342 14.27944232117643
Epoch: 2024-06-20T04:17Z
No data available
Other satellites on launch #31 in the year 1964 (1964-06-18 UTC)

THOR AGENA D R/B Visibility forecast

Observer location: 39.9160978°, -105.1181434, 0m alt.

THOR AGENA D R/B is not visible in the next 10 days
Span
Click to sort rows by Start time (UTC) header in descending order
Start Az.
Max El. time (UTC)
Max El. Az.
Max El.
End time (UTC)
End Az.